TimePDT,TemperatureF,Dew PointF,Humidity,Sea Level PressureIn,VisibilityMPH,Wind Direction,Wind SpeedMPH,Gust SpeedMPH,PrecipitationIn,Events,Conditions,WindDirDegrees,DateUTC
12:55 AM,60.8,56.7,86,29.93,10.0,Calm,Calm,-,N/A,,Clear,0,2012-10-07 07:55:00
1:55 AM,59.5,54.9,84,29.93,10.0,SSE,3.5,-,N/A,,Clear,160,2012-10-07 08:55:00
2:55 AM,57.4,54.3,90,29.92,10.0,Calm,Calm,-,N/A,,Clear,0,2012-10-07 09:55:00
3:55 AM,56.1,54.9,96,29.91,10.0,Calm,Calm,-,N/A,,Clear,0,2012-10-07 10:55:00
4:55 AM,53.6,52.5,96,29.92,10.0,Calm,Calm,-,N/A,,Clear,0,2012-10-07 11:55:00
5:55 AM,54.7,54.5,99,29.93,10.0,Calm,Calm,-,N/A,,Clear,0,2012-10-07 12:55:00
6:55 AM,53.6,53.2,99,29.94,8.0,Calm,Calm,-,N/A,,Clear,0,2012-10-07 13:55:00
7:55 AM,59.2,57.9,96,29.95,10.0,Calm,Calm,-,N/A,,Clear,0,2012-10-07 14:55:00
8:55 AM,64.8,57.4,77,29.96,10.0,SSE,3.5,-,N/A,,Clear,150,2012-10-07 15:55:00
9:55 AM,70.0,56.1,61,29.96,10.0,Calm,Calm,-,N/A,,Clear,0,2012-10-07 16:55:00
10:55 AM,75.4,53.6,47,29.94,10.0,Variable,3.5,-,N/A,,Clear,0,2012-10-07 17:55:00
11:55 AM,79.0,52.0,39,29.93,10.0,Variable,4.6,-,N/A,,Clear,0,2012-10-07 18:55:00
12:55 PM,81.9,52.2,36,29.91,10.0,NNW,4.6,-,N/A,,Clear,340,2012-10-07 19:55:00
1:55 PM,82.9,52.0,34,29.89,10.0,Variable,6.9,-,N/A,,Clear,0,2012-10-07 20:55:00
2:55 PM,83.1,54.3,37,29.88,10.0,NW,8.1,-,N/A,,Clear,310,2012-10-07 21:55:00
3:55 PM,82.6,58.1,43,29.87,10.0,NNW,9.2,-,N/A,,Clear,330,2012-10-07 22:55:00
4:55 PM,80.2,56.8,45,29.88,10.0,WNW,11.5,-,N/A,,Clear,300,2012-10-07 23:55:00
5:55 PM,76.3,54.5,47,29.88,10.0,WNW,10.4,-,N/A,,Clear,290,2012-10-08 00:55:00
6:55 PM,72.1,56.5,58,29.91,10.0,NW,11.5,-,N/A,,Clear,310,2012-10-08 01:55:00
7:55 PM,68.9,57.4,67,29.93,10.0,West,3.5,-,N/A,,Clear,280,2012-10-08 02:55:00
8:55 PM,65.5,55.4,70,29.94,10.0,NW,4.6,-,N/A,,Clear,320,2012-10-08 03:55:00
9:55 PM,64.6,58.5,80,29.94,10.0,NNW,5.8,-,N/A,,Clear,330,2012-10-08 04:55:00
10:55 PM,62.2,59.7,91,29.94,10.0,WNW,4.6,-,N/A,,Clear,290,2012-10-08 05:55:00
11:55 PM,62.4,61.3,96,29.94,10.0,Calm,Calm,-,N/A,,Clear,0,2012-10-08 06:55:00